Regional Weather Roundup
Issued by NWS

Home | Current Version | Previous Version | Text Only | Print | Product List | Glossary Off
Versions: 1 2 3 4 5 6 7 8 9 10 11 12 13 14 15 16 17 18 19 20 21 22 23 24 25 26 27 28 29 30 31 32 33 34 35 36 37 38 39 40 41 42 43 44 45 46 47 48 49 50

824
ASUS43 KLSX 262010
RWRMO

WEATHER SUMMARY FOR MISSOURI
NATIONAL WEATHER SERVICE SPRINGFIELD MO
300 PM CDT THU APR 26 2018

NOTE: "FAIR" INDICATES FEW OR NO CLOUDS BELOW 12,000 FEET WITH NO
       SIGNIFICANT WEATHER AND/OR OBSTRUCTIONS TO VISIBILITY.
       CURRENT SKY AND/OR WEATHER CONDITIONS ARE NOT AVAILABLE FOR
       CHILLICOTHE AND FARMINGTON.

MOZ001>031-035>038-043-044-053-054-262100-
...NORTHERN AND WESTERN MISSOURI...

CITY           SKY/WX    TMP DP  RH WIND       PRES   REMARKS
KANSAS CTY INT CLOUDY    66  45  46 W5        29.97F
KANSAS C DTWN  MOSUNNY   66  45  46 NW9       29.96F
LEE`S SUMMIT   CLOUDY    65  44  46 SW7       29.97F
ST JOSEPH      MOSUNNY   67  46  47 W9G17     29.96F
CHILLICOTHE      N/A     68  38  33 W10G17    29.96F
KIRKSVILLE     SUNNY     69  37  30 W9        29.93F

$$
MOZ066>068-077>081-088>096-101>105-262100-
...SOUTHWEST MISSOURI...

CITY           SKY/WX    TMP DP  RH WIND       PRES   REMARKS
SPRINGFIELD    CLOUDY    61  47  59 NW7       29.98S
JOPLIN         PTSUNNY   60  49  66 NW6       30.01F
BRANSON        CLOUDY    57  48  72 NW8       29.99S

$$
MOZ032>034-039>042-045>050-055>058-069>072-262100-
...CENTRAL MISSOURI...

CITY           SKY/WX    TMP DP  RH WIND       PRES   REMARKS
COLUMBIA       CLOUDY    69  41  36 NW8       29.93F
JEFFERSON CITY CLOUDY    67  45  45 NW9       29.94F
ROLLA          CLOUDY    64  45  49 MISG      29.95F
SEDALIA        CLOUDY    67  45  45 NW8       29.97F
WHITEMAN AFB   PTSUNNY   66  46  48 W3        29.93F
WARRENSBURG    CLOUDY    64  43  45 W7        29.97F
OSAGE BEACH    CLOUDY    65  46  50 S5        29.96F

$$
MOZ051-052-059>065-262100-
...EAST CENTRAL MISSOURI...

CITY           SKY/WX    TMP DP  RH WIND       PRES   REMARKS
ST LOUIS INTL  PTSUNNY   69  42  37 W14       29.92F
SPIRIT OF STL  PTSUNNY   69  44  40 NW8       29.91F
ST CHARLES     SUNNY     71  37  28 W14G22    29.90F

$$
MOZ072>076-082>087-097>100-106>115-262100-
...SOUTH CENTRAL AND SOUTHEAST MISSOURI...

CITY           SKY/WX    TMP DP  RH WIND       PRES   REMARKS
CAPE GIRARDEAU CLOUDY    58  45  62 N6        29.92F
FARMINGTON     SUNNY     63  43  48 NE6       29.94F
POPLAR BLUFF   CLOUDY    64  49  57 N9        29.92F
WEST PLAINS    MOSUNNY   64  47  53 NE9       29.94F

$$




USA.gov is the U.S. government's official web portal to all federal, state and local government web resources and services.